Flag for Netherlands Weather past 2 weeks in Maastricht, Netherlands

Now
57 °F

Mostly cloudy.


Feels Like: 53 °F
Forecast: 48 / 62 °F
Wind: 17 mph from Southwest

Location: Maastricht Airport Zuid Limburg

Current Time: May 29, 2015 at 2:56:17 PM

Latest Report: May 29, 2015 at 1:55 PM


Visibility: N/A

Pressure: 29.80 "Hg

Humidity: 59%

Dew point: 43 °F

Location of MaastrichtLocation

Historic Weather in Maastricht — Graph

°F

Maastricht temperature yesterday

Maximum temperature yesterday: 64 °F (at 3:55 PM)
Minimum temperature yesterday: 52 °F (at 11:55 PM)
Average temperature yesterday: 58 °F

Past Weeks' High & Low Weather Summary

 TemperatureHumidityPressure
High68 °F (May 18, 3:25 PM)100% (May 16, 5:25 PM)30.33 "Hg (May 16, 5:25 PM)
Low39 °F (May 21, 4:25 AM)38% (May 22, 3:55 PM)29.68 "Hg (May 18, 5:25 PM)
Average55 °F69%30.07 "Hg
* Reported May 14 1:25 PM — May 29 1:55 PM, Maastricht, Weather by CustomWeather, © 2015

Note: Actual official high and low records may vary slightly from our data, if they occured in-between our weather recording intervals... More about our weather records

Advertising

Maastricht weather history for previous 24 hours

 ConditionsComfort  
Time TempWeatherWind HumidityBarometerVisibility
1:55 PM
Fri, May 29
57 °FMostly cloudy.17 mph59%29.80 "HgN/A
1:25 PM57 °FCloudy.17 mph63%29.83 "HgN/A
12:55 PM57 °FMostly cloudy.14 mph59%29.83 "HgN/A
12:25 PM57 °FBroken clouds.16 mph59%29.83 "HgN/A
11:55 AM55 °FScattered clouds.17 mph63%29.86 "HgN/A
11:25 AM55 °FPassing clouds.17 mph63%29.86 "HgN/A
10:55 AM57 °FPassing clouds.16 mph63%29.86 "HgN/A
10:25 AM55 °FScattered clouds.17 mph63%29.86 "HgN/A
9:55 AM55 °FClear.14 mph67%29.86 "HgN/A
9:25 AM54 °FClear.13 mph72%29.89 "HgN/A
8:55 AM52 °FClear.12 mph72%29.89 "HgN/A
8:25 AM52 °FClear.9 mph72%29.89 "HgN/A
7:55 AM50 °FClear.9 mph76%29.89 "HgN/A
7:25 AM48 °FClear.8 mph82%29.89 "HgN/A
6:55 AM48 °FClear.8 mph82%29.89 "HgN/A
6:25 AM48 °FClear.8 mph82%29.89 "HgN/A
5:55 AM48 °FClear.8 mph82%29.92 "HgN/A
5:25 AM48 °FMostly cloudy.8 mph82%29.92 "HgN/A
4:55 AM48 °FClear.8 mph82%29.92 "HgN/A
4:25 AM48 °FCool.7 mph82%29.92 "HgN/A
3:55 AM48 °FClear.9 mph82%29.92 "HgN/A
3:25 AM48 °FCool.10 mph82%29.95 "HgN/A
2:55 AM50 °FOvercast.8 mph76%29.95 "HgN/A
1:55 AM50 °FPassing clouds.6 mph82%29.95 "HgN/A
1:25 AM52 °FPassing clouds.5 mph82%29.95 "HgN/A
12:55 AM52 °FOvercast.3 mph82%29.95 "HgN/A
11:55 PM
Thu, May 28
52 °FMostly cloudy.3 mph82%29.95 "HgN/A
11:25 PM54 °FPassing clouds.3 mph77%29.95 "HgN/A
10:55 PM54 °FPassing clouds.2 mph77%29.95 "HgN/A
10:25 PM54 °FPartly sunny.1 mph77%29.95 "HgN/A
9:55 PM55 °FScattered clouds.3 mph72%29.95 "HgN/A
9:25 PM57 °FPartly sunny.3 mph67%29.95 "HgN/A
8:55 PM57 °FPartly sunny.3 mph67%29.95 "HgN/A
8:25 PM57 °FPartly sunny.3 mph72%29.95 "HgN/A
7:55 PM57 °FBroken clouds.6 mph72%29.95 "HgN/A
7:25 PM57 °FScattered clouds.6 mph72%29.95 "HgN/A
6:55 PM57 °FBroken clouds.10 mph72%29.95 "HgN/A
6:25 PM63 °FPartly sunny.12 mph52%29.92 "HgN/A
5:55 PM63 °FPassing clouds.20 mph56%29.92 "HgN/A
5:25 PM63 °FScattered clouds.17 mph56%29.92 "HgN/A
4:55 PM63 °FPartly sunny.20 mph59%29.92 "HgN/A
4:25 PM64 °FBroken clouds.21 mph60%29.95 "HgN/A
3:55 PM64 °FScattered clouds.18 mph60%29.95 "HgN/A
3:25 PM63 °FPartly sunny.21 mph64%29.95 "HgN/A
2:55 PM63 °FBroken clouds.21 mph64%29.95 "HgN/A
2:25 PM61 °FBroken clouds.14 mph68%29.95 "HgN/A
Weather by CustomWeather, © 2015

See weather overviewHow to use our weather pages